Location: Cluj-Napoca
(46.7712°N, 23.6236°E)
Time: 17:40:56
(UTC+02:00)

ISS - Visible Passes

Search period start: 24 January 2021 00:00
Search period end: 03 February 2021 00:00
Orbit: 418 x 421 km, 51.6° (Epoch: 24 January)

Date Brightness Start Highest point End Pass type
(mag) Time Alt. Az. Time Alt. Az. Time Alt. Az.
24 Jan -3.7 18:10:21 10° WSW 18:13:44 81° NNW 18:16:27 15° ENE visible
24 Jan -1.5 19:47:41 10° WNW 19:49:25 24° NW 19:49:25 24° NW visible
25 Jan -2.9 19:00:09 10° W 19:03:22 39° N 19:04:00 35° NNE visible
26 Jan -3.1 18:12:37 10° W 18:15:53 46° NNW 18:18:34 14° ENE visible
26 Jan -1.5 19:50:01 10° WNW 19:51:32 22° NW 19:51:32 22° NW visible
27 Jan -2.8 19:02:30 10° WNW 19:05:39 34° N 19:06:05 32° NNE visible
28 Jan -2.7 18:14:58 10° WNW 18:18:07 35° N 18:20:39 14° ENE visible
28 Jan -1.5 19:52:07 10° WNW 19:53:37 23° NW 19:53:37 23° NW visible
29 Jan -3.0 19:04:40 10° WNW 19:07:53 38° N 19:08:11 37° NNE visible
30 Jan -2.8 18:17:11 10° WNW 18:20:20 35° N 18:22:47 15° ENE visible
30 Jan -1.7 19:54:04 10° WNW 19:55:46 27° WNW 19:55:46 27° WNW visible
31 Jan -3.7 19:06:38 10° WNW 19:10:00 58° NNE 19:10:25 52° NE visible
01 Feb -3.3 18:19:12 10° WNW 18:22:29 45° NNE 18:25:08 14° E visible
01 Feb -1.9 19:56:03 10° WNW 19:58:08 31° W 19:58:08 31° W visible
02 Feb -3.6 19:08:33 10° WNW 19:11:56 72° SSW 19:12:57 41° SE visible
